Location: Central Falls
(41.8900°N, 71.3929°W)
Time: 16:40:19
(UTC+00:00)

Vanguard 1 Rocket - Pass Details

Date: 12 December 2023
Orbit: 654 x 4218 km, 34.3° (Epoch: 24 February)

Event Time Altitude Azimuth Distance (km) Brightness Sun altitude
Rises 10:30:23 0° 263° (W) 8,406 - -16.7°
Exits shadow 10:36:33 10° 262° (W) 7,198 11.4 -15.6°
Reaches altitude 10° 10:36:37 10° 262° (W) 7,184 11.4 -15.6°
Maximum altitude 10:58:54 66° 187° (S) 2,952 10.0 -11.7°
Drops below altitude 10° 11:10:46 10° 109° (ESE) 4,126 12.4 -9.6°
Sets 11:13:19 0° 106° (ESE) 4,784 13.3 -9.2°
